This is the latest recevied weather packets stored in our database for station/object KC0UFP. If no packets are shown the sender has not sent any weather packets the latest 10 day(s).
| Time | Temp. | Humidity | Pressure | Rain* | Wind** | Luminosity | Snow |
|---|---|---|---|---|---|---|---|
| 1777646983 | 15° C | 46% | 1018.2 hPa | 0 mm | - | 699 W/m² | - |
| 1777646375 | 14.44° C | 47% | 1018.7 hPa | 0 mm | - | 660 W/m² | - |
| 1777646071 | 14.44° C | 46% | 1018.3 hPa | 0 mm | - | 409 W/m² | - |
| 1777645767 | 14.44° C | 47% | 1018.3 hPa | 0 mm | - | 535 W/m² | - |
| 1777645465 | 14.44° C | 51% | 1018.5 hPa | 0 mm | - | 569 W/m² | - |
| 1777645161 | 13.89° C | 56% | 1018.2 hPa | 0 mm | - | 512 W/m² | - |
| 1777644857 | 13.89° C | 57% | 1018.1 hPa | 0 mm | - | 480 W/m² | - |
| 1777644555 | 13.89° C | 58% | 1017.8 hPa | 0 mm | - | 508 W/m² | - |
| 1777643947 | 13.89° C | 60% | 1017.6 hPa | 0 mm | - | 483 W/m² | - |
| 1777643645 | 13.89° C | 65% | 1017.7 hPa | 0 mm | - | 431 W/m² | - |
| 1777642735 | 13.33° C | 65% | 1017.6 hPa | 0 mm | - | 326 W/m² | - |
| 1777642432 | 13.89° C | 67% | 1017.7 hPa | 0 mm | - | 385 W/m² | - |
| 1777642128 | 13.33° C | 68% | 1017.7 hPa | 0 mm | - | 341 W/m² | - |
| 1777641824 | 13.33° C | 69% | 1017.6 hPa | 0 mm | - | 320 W/m² | - |
| 1777641520 | 13.33° C | 69% | 1017.6 hPa | 0 mm | - | 303 W/m² | - |
| 1777641215 | 13.33° C | 72% | 1017.7 hPa | 0 mm | - | 268 W/m² | - |
| 1777640305 | 12.78° C | 75% | 1017.6 hPa | 0 mm | - | 201 W/m² | - |
| 1777640002 | 12.78° C | 75% | 1017.5 hPa | 0 mm | - | 211 W/m² | - |
| 1777638795 | 12.78° C | 77% | 1017.3 hPa | 0 mm | - | 153 W/m² | - |
| 1777638187 | 12.22° C | 79% | 1017.1 hPa | 0 mm | - | 119 W/m² | - |
| 1777637882 | 12.22° C | 79% | 1017.3 hPa | 0 mm | - | 104 W/m² | - |
| 1777637579 | 12.22° C | 80% | 1017.1 hPa | 0 mm | - | 95 W/m² | - |
| 1777637276 | 12.22° C | 82% | 1017.2 hPa | 0 mm | - | 86 W/m² | - |
| 1777636973 | 11.67° C | 81% | 1017.2 hPa | 0 mm | - | 74 W/m² | - |
| 1777636668 | 11.67° C | 82% | 1017.1 hPa | 0 mm | - | 63 W/m² | - |
* Rain latest hour (hover to see other rain measurements)
** Current wind speed in m/s (hover to see current wind gust speed)